Miscellaneous Local Product
Issued by NWS North Platte, NE

Home | Current Version | Previous Version | Graphics & Text | Print | Product List | Glossary On
Versions: 1 2 3 4 5 6 7 8 9 10 11 12 13 14 15 16 17 18 19 20 21 22 23 24 25 26 27 28 29 30 31 32 33 34 35 36 37 38 39 40 41 42 43 44 45 46 47 48 49 50
000
AXUS43 KLBF 011610
MISLBF


WESTERN AND NORTH CENTRAL NEBRASKA HOURLY WEATHER ROUNDUP
NATIONAL WEATHER SERVICE NORTH PLATTE NE
1100 AM CDT TUE SEP 01 2015

NOTE: "FAIR" INDICATES FEW OR NO CLOUDS BELOW 12,000 FEET WITH NO
SIGNIFICANT WEATHER AND/OR OBSTRUCTIONS TO VISIBILITY.

NOTE: STATIONS NOT REPORTING VARIABLES SUCH AS SKY/WEATHER OR
PRESSURE ARE PROVIDED BY THE NEBRASKA DEPARTMENT OF
ROADS...RAWS...AND APRS NETWORKS...AND ARE NOT UNDER
NATIONAL WEATHER SERVICE QUALITY CONTROL.

...OBSERVATIONS IN AND NEAR THE EASTERN PANHANDLE OF NEBRASKA...

CITY           SKY/WX    TMP DP  RH WIND       PRES   REMARKS
PINE RIDGE     SUNNY     80  50  34 SW7       29.92S
CHADRON        SUNNY     82  48  30 W7        29.92S
ALLIANCE       SUNNY     81  47  30 W10       29.98S
SIDNEY         SUNNY     84  48  28 W12       30.03S
CRESCENT LAKE    N/A     78  52  39 W6          N/A
BIG SPRINGS      N/A     73  60  64 W6          N/A
$$

...OBSERVATIONS IN NORTH CENTRAL NEBRASKA...

CITY           SKY/WX    TMP DP  RH WIND       PRES   REMARKS
VALENTINE      PTSUNNY   71  64  78 CALM      29.92F
THEDFORD       MOSUNNY   78  67  66 CALM      29.96S
AINSWORTH      CLOUDY    75  66  74 S9        29.95R
O`NEILL        CLOUDY    76  71  83 NE5       29.92R
ORD            PTSUNNY   77  62  59 E3        29.91S
BROKEN BOW     MOSUNNY   82  62  50 N6        29.93F
SPRINGVIEW       N/A     73  69  89 CALM        N/A
SARGENT          N/A     75  64  70 CALM        N/A
CHAMBERS         N/A     75  68  78 CALM        N/A
EWING            N/A     76  66  71 S3          N/A
$$

...OBSERVATIONS IN SOUTHWEST NEBRASKA AND FAR NORTHEAST COLORADO...

CITY           SKY/WX    TMP DP  RH WIND       PRES   REMARKS
WRAY           CLOUDY    77  58  52 W5        30.03S
IMPERIAL       SUNNY     77  56  48 W7        30.00R
OGALLALA       PTSUNNY   74  59  59 W5        29.99S
NORTH PLATTE   MOSUNNY   79  62  56 CALM      29.95S
MCCOOK         SUNNY     80  63  55 VRB5      29.96S
LEXINGTON      SUNNY     78  64  62 NW3       29.94S
PAXTON           N/A     73  66  78 CALM        N/A
BRADY            N/A     78  66  66 CALM        N/A
CALLAWAY         N/A     81  67  62 W5          N/A
$$

...OBSERVATIONS IN CENTRAL LINCOLN COUNTY AREA...

CITY           SKY/WX    TMP DP  RH WIND       PRES   REMARKS
N.P. AIRPORT   MOSUNNY   79  62  56 CALM      29.95S
N.P. DOWNTOWN    N/A     79  64  59 CALM        N/A
N.P. SOUTHEAST   N/A     82  63  52 CALM        N/A
N.P. HILLCREST   N/A     77  63  62 CALM        N/A
$$

...SOME OBSERVATIONS FROM AROUND THE REGION...

CITY           SKY/WX    TMP DP  RH WIND       PRES   REMARKS
DENVER         MOSUNNY   77  47  34 SW7       30.13R
LARAMIE        SUNNY     69  44  40 W13G21    30.22S
CHEYENNE       SUNNY     77  43  29 W17       30.15R
SCOTTSBLUFF    SUNNY     74  54  49 CALM      30.00S
RAPID CITY       N/A    N/A N/A N/A MISG      29.88R
PIERRE         SUNNY     77  67  71 SE14      29.85F
WINNER         LGT RAIN  74  67  78 S7        29.88F
SIOUX FALLS    CLOUDY    75  69  81 S6        29.90R
OMAHA          PTSUNNY   81  68  64 S10       29.95S
GRAND ISLAND   PTSUNNY   81  63  54 S15G22    29.95R
KANSAS CITY    MOSUNNY   84  68  58 SW15      30.04R
WICHITA        MOSUNNY   84  65  52 S15       30.01S
HAYS           MOSUNNY   84  61  45 SW21G26   29.96R
LIBERAL        MOSUNNY   79  55  44 S10       30.03S
GOODLAND       SUNNY     77  57  50 S7        30.03S
$$



USA.gov is the U.S. government's official web portal to all federal, state and local government web resources and services.